Weather History for St. Johns, AZ

Change the Weather History Date:

Tuesday, February 5, 2013

  Actual Average (KSOW) Record (KSOW)
Temperature  
Mean Temperature 36 °F -  
Max Temperature 54 °F 44 °F 64 °F (2009)
Min Temperature 19 °F 26 °F 5 °F (1971)
Degree Days  
Heating Degree Days 28    
Moisture  
Dew Point 20 °F    
Average Humidity 53    
Maximum Humidity 89    
Minimum Humidity 14    
Precipitation  
Precipitation 0.00 in - - ()
Sea Level Pressure  
Sea Level Pressure 30.04 in    
Wind  
Wind Speed 3 mph (South)    
Max Wind Speed 12 mph    
Max Gust Speed -    
Visibility 10 miles    
Events      
Averages and records for this station are not official NWS values.
T = Trace of Precipitation, MM = Missing Value Source: NWS Daily Summary

Daily Weather History Graph

Daily Weather History Graph

Search for Another Location

Airport:

Trip Planner

Search our weather history database for the weather conditions in past years. The results will help you decide how hot, cold, wet, or windy it might be!

Date:

Astronomy

Feb. 05, 2013 Rise Set
Actual Time 7:12 AM MST 5:51 PM MST
Civil Twilight 6:45 AM MST 6:17 PM MST
Nautical Twilight 6:15 AM MST 6:47 PM MST
Astronomical Twilight 5:46 AM MST 7:17 PM MST
Moon 2:52 AM MST (2/5) 1:16 PM MST (2/5)
Length of Visible Light 11h 31m
Length of Day
10h 39m
Waning Crescent, 26% of the Moon is Illuminated
Feb 5
Waning Crescent
Feb 10
New
Feb 17
First Quarter
Feb 25
Full
Mar 4
Last Quarter

Hourly Weather History & Observations

Time (MST) Temp. Windchill Dew Point Humidity Pressure Visibility Wind Dir Wind Speed Gust Speed Precip Events Conditions
12:54 AM 30.0 °F 26.5 °F 23.0 °F 75% 30.08 in 10.0 mi SSE 3.5 mph - N/A   Clear
1:54 AM 28.0 °F 24.2 °F 21.9 °F 78% 30.08 in 10.0 mi South 3.5 mph - N/A   Clear
2:54 AM 24.1 °F 19.7 °F 19.9 °F 84% 30.08 in 10.0 mi South 3.5 mph - N/A   Clear
3:54 AM 21.9 °F - 19.0 °F 89% 30.08 in 10.0 mi Calm Calm - N/A   Clear
4:54 AM 24.1 °F 19.7 °F 19.0 °F 81% 30.08 in 10.0 mi SSE 3.5 mph - N/A   Clear
5:54 AM 26.1 °F - 19.9 °F 78% 30.10 in 10.0 mi Calm Calm - N/A   Clear
6:54 AM 24.1 °F 19.7 °F 19.0 °F 81% 30.14 in 10.0 mi South 3.5 mph - N/A   Clear
7:54 AM 27.0 °F - 19.9 °F 75% 30.15 in 10.0 mi Calm Calm - N/A   Clear
8:54 AM 33.1 °F - 24.1 °F 70% 30.13 in 10.0 mi Calm Calm - N/A   Clear
9:54 AM 39.0 °F - 25.0 °F 57% 30.11 in 10.0 mi Calm Calm - N/A   Clear
10:54 AM 44.1 °F 41.5 °F 27.0 °F 51% 30.09 in 10.0 mi North 4.6 mph - N/A   Clear
11:54 AM 50.0 °F - 26.1 °F 39% 30.06 in 10.0 mi Calm Calm - N/A   Clear
12:54 PM 52.0 °F - 24.1 °F 34% 30.01 in 10.0 mi North 5.8 mph - N/A   Clear
1:54 PM 55.0 °F - 21.9 °F 28% 29.97 in 10.0 mi Variable 3.5 mph - N/A   Clear
2:54 PM 55.0 °F - 18.0 °F 23% 29.96 in 10.0 mi Calm Calm - N/A   Clear
3:54 PM 55.9 °F - 17.1 °F 22% 29.96 in 10.0 mi WNW 5.8 mph - N/A   Clear
4:54 PM 55.0 °F - 15.1 °F 21% 29.96 in 10.0 mi West 3.5 mph - N/A   Clear
5:54 PM 51.1 °F - 17.1 °F 26% 29.96 in 10.0 mi Calm Calm - N/A   Clear
6:54 PM 41.0 °F - 21.0 °F 45% 30.01 in 10.0 mi Calm Calm - N/A   Clear
7:54 PM 37.0 °F 33.3 °F 21.9 °F 54% 30.03 in 9.0 mi SSE 4.6 mph - N/A   Clear
8:54 PM 37.0 °F 31.0 °F 19.9 °F 50% 30.01 in 10.0 mi South 8.1 mph - N/A   Clear
9:54 PM 37.0 °F 31.0 °F 19.9 °F 50% 29.99 in 10.0 mi South 8.1 mph - N/A   Clear
10:54 PM 36.0 °F 29.6 °F 19.9 °F 52% 29.96 in 10.0 mi SSE 8.1 mph - N/A   Clear
11:54 PM 35.6 °F 28.6 °F 21.2 °F 56% 30.02 in 10.0 mi South 9.2 mph - N/A   Clear